Tracking 29528 objects as of 13-Sep-2024
HD Live streaming from Space Station
objects crossing your sky now

STARLINK-30704

Track STARLINK-30704 now!
10-day predictions
STARLINK-30704 is classified as:


NORAD ID: 57946
Int'l Code: 2023-148M
Perigee: 558.0 km
Apogee: 559.6 km
Inclination: 53.2 °
Period: 95.7 minutes
Semi major axis: 6929 km
RCS: Unknown
Launch date: September 25, 2023
Source: United States (US)
Launch site: AIR FORCE WESTERN TEST RANGE (AFWTR)
Your satellite tracking list
Your tracking list is empty




NASA's NSSDC Master Catalog

Two Line Element Set (TLE):
1 57946U 23148M   24256.76179375  .00011006  00000-0  78636-3 0  9994
2 57946  53.1603  52.1978 0001166  89.0235 271.0888 15.04954011 54928
Source of the keplerian elements: AFSPC